TimeEST,TemperatureF,Dew PointF,Humidity,Sea Level PressureIn,VisibilityMPH,Wind Direction,Wind SpeedMPH,Gust SpeedMPH,PrecipitationIn,Events,Conditions,WindDirDegrees,DateUTC
12:53 AM,34.0,30.9,89,30.16,10.0,ENE,3.5,-,N/A,,Mostly Cloudy,60,2012-11-04 04:53:00
1:53 AM,36.0,30.9,82,30.16,10.0,North,3.5,-,N/A,,Overcast,360,2012-11-04 05:53:00
1:53 AM,34.0,32.0,92,30.17,10.0,Calm,Calm,-,N/A,,Overcast,0,2012-11-04 06:53:00
2:53 AM,34.0,30.9,89,30.17,10.0,North,4.6,-,N/A,,Mostly Cloudy,360,2012-11-04 07:53:00
3:53 AM,30.9,28.9,92,30.15,10.0,NNE,3.5,-,N/A,,Overcast,30,2012-11-04 08:53:00
4:53 AM,30.9,28.9,92,30.17,10.0,Calm,Calm,-,N/A,,Clear,0,2012-11-04 09:53:00
5:53 AM,30.0,28.0,92,30.17,7.0,Calm,Calm,-,N/A,,Partly Cloudy,0,2012-11-04 10:53:00
6:53 AM,28.9,27.0,92,30.18,6.0,Calm,Calm,-,N/A,,Partly Cloudy,0,2012-11-04 11:53:00
7:53 AM,32.0,30.0,92,30.19,6.0,North,3.5,-,N/A,,Overcast,360,2012-11-04 12:53:00
8:53 AM,35.1,32.0,89,30.20,7.0,North,4.6,-,N/A,,Overcast,360,2012-11-04 13:53:00
9:53 AM,37.0,33.1,86,30.20,9.0,North,3.5,-,N/A,,Overcast,350,2012-11-04 14:53:00
10:53 AM,39.0,33.1,79,30.19,10.0,NNE,4.6,-,N/A,,Overcast,30,2012-11-04 15:53:00
11:01 AM,39.2,32.0,75,30.16,10.0,ENE,4.6,-,N/A,,Overcast,60,2012-11-04 16:01:00
11:53 AM,39.9,32.0,73,30.18,10.0,NNE,3.5,-,N/A,,Overcast,20,2012-11-04 16:53:00
12:31 PM,39.2,30.2,70,30.15,10.0,Calm,Calm,-,N/A,,Overcast,0,2012-11-04 17:31:00
12:53 PM,39.9,30.0,68,30.18,10.0,North,5.8,-,N/A,,Overcast,350,2012-11-04 17:53:00
1:53 PM,39.9,32.0,73,30.17,10.0,North,4.6,-,N/A,,Overcast,360,2012-11-04 18:53:00
2:53 PM,39.9,30.0,68,30.17,10.0,NNW,6.9,-,N/A,,Overcast,340,2012-11-04 19:53:00
3:53 PM,39.9,30.9,70,30.17,10.0,NNW,6.9,-,N/A,,Overcast,340,2012-11-04 20:53:00
4:53 PM,39.0,30.9,73,30.17,10.0,North,6.9,-,N/A,,Overcast,10,2012-11-04 21:53:00
5:53 PM,37.9,30.9,76,30.17,10.0,North,5.8,-,N/A,,Overcast,360,2012-11-04 22:53:00
6:49 PM,37.4,30.2,75,30.15,10.0,North,4.6,-,N/A,,Overcast,10,2012-11-04 23:49:00
6:53 PM,37.0,30.9,79,30.19,10.0,North,4.6,-,N/A,,Overcast,10,2012-11-04 23:53:00
7:53 PM,37.0,30.0,76,30.19,10.0,NNE,5.8,-,N/A,,Overcast,20,2012-11-05 00:53:00
8:26 PM,37.4,30.2,75,30.16,10.0,North,5.8,-,N/A,,Overcast,360,2012-11-05 01:26:00
8:53 PM,37.0,30.0,76,30.19,10.0,North,6.9,-,N/A,,Overcast,360,2012-11-05 01:53:00
9:53 PM,37.0,28.9,73,30.19,10.0,North,6.9,-,N/A,,Overcast,350,2012-11-05 02:53:00
10:53 PM,36.0,28.0,73,30.18,10.0,North,6.9,-,N/A,,Overcast,360,2012-11-05 03:53:00